TIANWANG 1B (TW-1B)
1 40927U 15051C   19357.42045163  .00012951  00000-0  17403-3 0  9990
2 40927  97.1156  42.5363 0008719  54.4594  71.2397 15.57987260239207
TIANWANG 1A (TW-1A)
1 40928U 15051D   19357.45798771  .00002612  00000-0  63691-4 0  9998
2 40928  97.1288  24.5177 0012391 106.7966 358.9054 15.41703639238092
LAPAN A2
1 40931U 15052B   19356.78058283  .00000619  00000-0 -29880-5 0  9994
2 40931   5.9975 162.4674 0013476 288.3743  71.4484 14.76621534228953
LQSAT
1 40958U 15057A   19356.76688742 -.00000016  00000-0  50981-5 0  9992
2 40958  97.8783  60.6943 0018158   5.4311 354.7090 14.73100854226343
CHUBUSAT 2
1 41338U 16012B   19356.79218933 +.00000275 +00000-0 +14644-4 0  9992
2 41338 031.0044 035.6651 0013705 156.5553 203.5709 15.00222542211031
CHUBUSAT 3
1 41339U 16012C   19357.47189185  .00000236  00000-0  11499-4 0  9997
2 41339  31.0129  29.1985 0013335 171.1285 188.9589 15.00392596211138
OUFTI-1
1 41458U 16025C   19357.21841168  .00001498  00000-0  78599-4 0  9996
2 41458  98.1002  93.6218 0166385  86.4913 275.5326 15.06332275200795
E-STAR-2
1 41459U 16025D   19357.48073028  .00002058  00000-0  10712-3 0  9993
2 41459  98.1005  93.4446 0167561  87.3915 274.6473 15.05940535200807
AAUSAT 4
1 41460U 16025E   19357.47720429  .00002327  00000-0  11763-3 0  9994
2 41460  98.0987  95.1908 0157107  78.1514 283.7261 15.08027513200965
NUSAT 1
1 41557U 16033B   19357.54279188  .00000927  00000-0  37032-4 0  9991
2 41557  97.4122  83.9304 0013547   1.0652 359.0613 15.27614665198761
BEESAT 4
1 41619U 16040W   19357.12095964  .00001115  00000-0  49497-4 0  9998
2 41619  97.3454  55.6488 0012888  85.7481 274.5229 15.23556959182395
PRATHAM
1 41783U 16059A   19357.13320633  .00000027  00000-0  14383-4 0  9992
2 41783  98.0440  52.3296 0034239 152.6163 207.6853 14.63027652172953
ALSAT 1N
1 41789U 16059G   19357.43994200  .00000056  00000-0  19547-4 0  9997
2 41789  98.0468  55.0414 0029160 139.9915 220.3445 14.64285001173125
NAYIF 1
1 42017U 17008BX  19357.46515585  .00001246  00000-0  51252-4 0  9996
2 42017  97.3833  62.4478 0005205 214.6314 145.4586 15.25998305158557
MAX VALIER SAT
1 42778U 17036P   19357.41003552  .00000728  00000-0  34550-4 0  9998
2 42778  97.3314  50.7105 0010669 286.7835  73.2230 15.22313377138795
